Back to catalog

STARLINK-36396

AliveCommunicationsVLEO
NORAD 67494·PAYLOAD·🇺🇸 United States

Launched Jan 18, 2026 from Cape Canaveral Space Force Station

Loading…

Next Passes (next 24 hours)

TLE

FreshSource: CelesTrak SupGP

Epoch: Sep 14, 2026, 14:49 UTC

1 67494C 26012B   26257.61784722  .00029761  00000+0  10785-2 0  2574
2 67494  43.0008 327.5818 0001429 278.4903 115.9039 15.27547482    14

Track STARLINK-36396 in real time with AllMySat

Download on the App Store